{"data":{"norad_id":65492,"epoch":"2026-09-20T21:49:04.380672Z","epoch_age_seconds":76634,"freshness":"FRESH","line1":"1 65492U 25198A   26263.90907848  .00017268  00000+0  52065-3 0  9999","line2":"2 65492  53.1574  79.6429 0000340 209.6308 150.4676 15.34421751 58572","mean_motion":15.34421751,"eccentricity":3.4e-5,"inclination_deg":53.1574,"raan_deg":79.6429,"arg_perigee_deg":209.6308,"mean_anomaly_deg":150.4676,"bstar":0.00052065,"rev_number":5857,"period_min":93.846427754399,"perigee_km":462.40600604483,"apogee_km":462.87117878512,"semimajor_km":6840.775592415,"source":"CELESTRAK","updated_at":"2026-09-21T09:00:35.640898Z"}}